• In Hungary
  • List of Countries
  • For 7 days
  • Water Temperature
  • Satellite Maps
  • Weather Map
  • News
  • Weather Widgets
  • user-avatar
    Login

    Hourly Weather León

    Today, 26 September, Wednesday

    Time Temperature Precipitation Wind Pressure Humidity
    00:00 +27°C° 0.1 mm 3 mps 749 mmHg 79%
    01:00 +27°C° 0.1 mm 3 mps 749 mmHg 80%
    02:00 +27°C° 0.1 mm 3 mps 748 mmHg 80%
    03:00 +27°C° 0.1 mm 2 mps 748 mmHg 80%
    04:00 +26°C° 0 mm 2 mps 748 mmHg 81%
    05:00 +26°C° 0 mm 2 mps 748 mmHg 81%
    06:00 +26°C° 0 mm 2 mps 749 mmHg 81%
    07:00 +28°C° 0 mm 3 mps 749 mmHg 72%
    08:00 +31°C° 0 mm 3 mps 749 mmHg 63%
    09:00 +34°C° 0 mm 4 mps 750 mmHg 54%
    10:00 +35°C° 0 mm 4 mps 750 mmHg 50%
    11:00 +36°C° 0 mm 4 mps 749 mmHg 46%
    12:00 +38°C° 0 mm 4 mps 749 mmHg 42%
    13:00 +37°C° 0.1 mm 3 mps 748 mmHg 46%
    14:00 +36°C° 0.1 mm 3 mps 747 mmHg 49%
    15:00 +35°C° 0.1 mm 3 mps 747 mmHg 53%
    16:00 +33°C° 0.1 mm 3 mps 747 mmHg 57%
    17:00 +31°C° 0.1 mm 2 mps 747 mmHg 60%
    18:00 +30°C° 0.1 mm 2 mps 747 mmHg 64%
    19:00 +29°C° 0.1 mm 2 mps 748 mmHg 66%
    20:00 +28°C° 0.1 mm 2 mps 749 mmHg 69%
    21:00 +28°C° 0.1 mm 2 mps 749 mmHg 71%
    22:00 +27°C° 0.1 mm 2 mps 749 mmHg 74%
    23:00 +27°C° 0.1 mm 2 mps 749 mmHg 76%

    Tomorrow, 27 September, Thursday

    Time Temperature Precipitation Wind Pressure Humidity
    00:00 +26°C° 0.1 mm 2 mps 749 mmHg 78%
    01:00 +26°C° 0 mm 2 mps 749 mmHg 79%
    02:00 +26°C° 0 mm 2 mps 748 mmHg 80%
    03:00 +26°C° 0 mm 2 mps 748 mmHg 81%
    04:00 +26°C° 0.1 mm 2 mps 748 mmHg 81%
    05:00 +25°C° 0.1 mm 2 mps 748 mmHg 81%
    06:00 +25°C° 0.1 mm 2 mps 748 mmHg 80%
    07:00 +28°C° 0 mm 3 mps 749 mmHg 71%
    08:00 +30°C° 0 mm 3 mps 749 mmHg 62%
    09:00 +34°C° 0 mm 3 mps 750 mmHg 53%
    10:00 +35°C° 0 mm 3 mps 749 mmHg 48%
    11:00 +37°C° 0 mm 3 mps 749 mmHg 43%
    12:00 +38°C° 0 mm 3 mps 748 mmHg 38%
    13:00 +37°C° 0 mm 3 mps 748 mmHg 41%
    14:00 +37°C° 0 mm 3 mps 747 mmHg 44%
    15:00 +36°C° 0 mm 4 mps 746 mmHg 47%
    16:00 +34°C° 0.1 mm 3 mps 746 mmHg 51%
    17:00 +33°C° 0.1 mm 3 mps 747 mmHg 56%
    18:00 +31°C° 0.1 mm 2 mps 747 mmHg 60%
    19:00 +30°C° 0 mm 2 mps 748 mmHg 63%
    20:00 +29°C° 0 mm 2 mps 749 mmHg 67%
    21:00 +28°C° 0 mm 2 mps 750 mmHg 70%
    22:00 +28°C° 0.3 mm 3 mps 749 mmHg 73%
    23:00 +27°C° 0.3 mm 3 mps 749 mmHg 75%

    Day after tomorrow, 28 September, Friday

    Time Temperature Precipitation Wind Pressure Humidity
    00:00 +27°C° 0.3 mm 3 mps 749 mmHg 77%
    01:00 +27°C° 0.3 mm 3 mps 749 mmHg 79%
    02:00 +26°C° 0.3 mm 3 mps 748 mmHg 81%
    03:00 +26°C° 0.3 mm 2 mps 748 mmHg 82%
    04:00 +26°C° 0.1 mm 2 mps 748 mmHg 82%
    05:00 +26°C° 0.1 mm 2 mps 748 mmHg 82%
    06:00 +26°C° 0.1 mm 2 mps 749 mmHg 82%
    07:00 +28°C° 0 mm 2 mps 749 mmHg 73%
    08:00 +30°C° 0 mm 2 mps 750 mmHg 64%
    09:00 +32°C° 0 mm 2 mps 750 mmHg 54%
    10:00 +35°C° 0 mm 2 mps 750 mmHg 49%
    11:00 +37°C° 0 mm 2 mps 749 mmHg 44%
    12:00 +38°C° 0 mm 2 mps 749 mmHg 40%
    13:00 +36°C° 0.3 mm 3 mps 748 mmHg 47%
    14:00 +35°C° 0.3 mm 3 mps 747 mmHg 55%
    15:00 +33°C° 0.3 mm 3 mps 746 mmHg 63%
    16:00 +31°C° 0.6 mm 3 mps 747 mmHg 66%
    17:00 +30°C° 0.6 mm 2 mps 747 mmHg 69%
    18:00 +29°C° 0.6 mm 1 mps 748 mmHg 72%
    19:00 +29°C° 0.2 mm 1 mps 748 mmHg 73%
    20:00 +28°C° 0.2 mm 2 mps 749 mmHg 75%
    21:00 +28°C° 0.2 mm 2 mps 750 mmHg 77%
    22:00 +27°C° 0.1 mm 2 mps 749 mmHg 77%
    23:00 +27°C° 0.1 mm 2 mps 749 mmHg 78%

    29 September, Saturday

    Time Temperature Precipitation Wind Pressure Humidity
    00:00 +27°C° 0.1 mm 2 mps 749 mmHg 79%
    01:00 +27°C° 0 mm 2 mps 749 mmHg 80%
    02:00 +26°C° 0 mm 2 mps 748 mmHg 81%
    03:00 +26°C° 0 mm 2 mps 748 mmHg 81%
    04:00 +26°C° 0 mm 2 mps 748 mmHg 80%
    05:00 +26°C° 0 mm 3 mps 748 mmHg 80%
    06:00 +26°C° 0 mm 3 mps 749 mmHg 79%
    07:00 +28°C° 0 mm 3 mps 749 mmHg 71%
    08:00 +31°C° 0 mm 3 mps 750 mmHg 62%
    09:00 +34°C° 0 mm 4 mps 750 mmHg 54%
    10:00 +35°C° 0 mm 4 mps 749 mmHg 49%
    11:00 +37°C° 0 mm 4 mps 749 mmHg 44%
    12:00 +38°C° 0 mm 4 mps 748 mmHg 39%
    13:00 +37°C° 0 mm 4 mps 747 mmHg 42%
    14:00 +36°C° 0 mm 4 mps 747 mmHg 46%
    15:00 +36°C° 0 mm 4 mps 746 mmHg 49%
    16:00 +34°C° 0.7 mm 4 mps 747 mmHg 55%
    17:00 +32°C° 0.7 mm 4 mps 747 mmHg 62%
    18:00 +30°C° 0.7 mm 3 mps 748 mmHg 68%
    19:00 +29°C° 0.1 mm 4 mps 748 mmHg 69%
    20:00 +29°C° 0.1 mm 4 mps 749 mmHg 70%
    21:00 +28°C° 0.1 mm 4 mps 750 mmHg 71%
    22:00 +28°C° 0 mm 4 mps 749 mmHg 71%
    23:00 +28°C° 0 mm 4 mps 749 mmHg 72%

    30 September, Sunday

    Time Temperature Precipitation Wind Pressure Humidity
    00:00 +27°C° 0 mm 4 mps 749 mmHg 72%
    01:00 +27°C° 0 mm 3 mps 748 mmHg 74%
    02:00 +27°C° 0 mm 3 mps 748 mmHg 75%
    03:00 +26°C° 0 mm 3 mps 748 mmHg 77%
    04:00 +26°C° 0 mm 3 mps 748 mmHg 78%
    05:00 +26°C° 0 mm 3 mps 749 mmHg 78%
    06:00 +26°C° 0 mm 2 mps 749 mmHg 79%
    07:00 +28°C° 0 mm 2 mps 750 mmHg 73%
    08:00 +29°C° 0 mm 2 mps 750 mmHg 66%
    09:00 +31°C° 0 mm 2 mps 750 mmHg 60%
    10:00 +32°C° 0 mm 2 mps 750 mmHg 54%
    11:00 +35°C° 0 mm 2 mps 749 mmHg 47%
    12:00 +36°C° 0 mm 1 mps 749 mmHg 41%
    13:00 +36°C° 0 mm 2 mps 748 mmHg 42%
    14:00 +36°C° 0 mm 2 mps 748 mmHg 43%
    15:00 +36°C° 0 mm 3 mps 747 mmHg 44%
    16:00 +34°C° 0.2 mm 2 mps 747 mmHg 53%
    17:00 +31°C° 0.2 mm 2 mps 748 mmHg 63%
    18:00 +29°C° 0.2 mm 2 mps 748 mmHg 72%
    19:00 +28°C° 0.5 mm 2 mps 749 mmHg 76%
    20:00 +28°C° 0.5 mm 2 mps 750 mmHg 80%
    21:00 +27°C° 0.5 mm 2 mps 750 mmHg 83%
    22:00 +27°C° 0.2 mm 2 mps 750 mmHg 85%
    23:00 +26°C° 0.2 mm 2 mps 750 mmHg 86%

    1 October, Monday

    Time Temperature Precipitation Wind Pressure Humidity
    00:00 +26°C° 0.2 mm 2 mps 749 mmHg 87%
    01:00 +26°C° 0.2 mm 2 mps 749 mmHg 87%
    02:00 +26°C° 0.2 mm 2 mps 749 mmHg 88%
    03:00 +25°C° 0.2 mm 2 mps 749 mmHg 88%
    04:00 +25°C° 0.2 mm 2 mps 749 mmHg 88%
    05:00 +25°C° 0.2 mm 2 mps 749 mmHg 88%
    06:00 +25°C° 0.2 mm 1 mps 750 mmHg 87%
    07:00 +28°C° 0 mm 1 mps 750 mmHg 77%
    08:00 +30°C° 0 mm 2 mps 750 mmHg 66%
    09:00 +34°C° 0 mm 2 mps 751 mmHg 55%
    10:00 +34°C° 0 mm 1 mps 750 mmHg 50%
    11:00 +36°C° 0 mm 1 mps 749 mmHg 45%
    12:00 +37°C° 0 mm 1 mps 749 mmHg 40%
    13:00 +37°C° 0.1 mm 2 mps 748 mmHg 45%
    14:00 +36°C° 0.1 mm 3 mps 747 mmHg 50%
    15:00 +34°C° 0.1 mm 3 mps 747 mmHg 55%
    16:00 +33°C° 0.3 mm 3 mps 747 mmHg 64%
    17:00 +30°C° 0.3 mm 3 mps 748 mmHg 72%
    18:00 +28°C° 0.3 mm 2 mps 748 mmHg 80%
    19:00 +28°C° 1.4 mm 2 mps 749 mmHg 84%
    20:00 +27°C° 1.4 mm 2 mps 749 mmHg 87%
    21:00 +27°C° 1.4 mm 2 mps 750 mmHg 90%
    22:00 +26°C° 0.7 mm 1 mps 750 mmHg 91%
    23:00 +26°C° 0.7 mm 1 mps 750 mmHg 92%
    Show more